Zurück zum Katalog

STARLINK-1596

AktivKommunikationVLEO
NORAD 46141·PAYLOAD·🇺🇸 United States

Gestartet Aug 18, 2020 von Cape Canaveral Space Force Station

Loading…

Nächste Überflüge (nächste 24 Stunden)

TLE

AktuellSource: CelesTrak SupGP

Epoche: Sep 15, 2026, 01:52 UTC

1 46141C 20057AA  26258.07826389  .00092053  00000+0  57188-3 0  2584
2 46141  53.0298  27.3741 0002538 353.7134   9.8970 15.76251764    11

Verfolge STARLINK-1596 in Echtzeit mit AllMySat

Download on the App Store